STARLINK-32511, 61727

Orbit data source: Space-Track

STARLINK-32511, 61727 is a payload satellite owned by SpaceX/Seattle (US) in LEO that was launched on Wed, 30 Oct 2024 UTC via an FALCON 9 launch vehicle from the Air Force Eastern Test Range (AFETR). Payload-class satellites include a variety of spacecraft equipped with specific instruments for various scientific and technological missions. These include communications satellites like Starlink; space stations such as the ISS; scientific satellites like the Hubble; Earth observation satellites from companies like Planet Labs, Umbra, and HawkEye 360; GPS; miniature CubeSats for education and research; and military/defense satellites.

Loading next visibility...
Identifier
61727, 2024-196W
Orbit
LEO
Last TLE update
17 hours ago
Origin
Manufacturer
SpaceX/Seattle
Mission
Operational Commercial Communications
Bus & Motor
STARLINK V2M, Unknown motor
Mass
730 kg wet, ~700 kg dry
Launch date (UTC)
2024-10-30 (8 months ago)
Launch vehicle
FALCON 9
Launch site
Air Force Eastern Test Range (AFETR)
Object type
Payload
Rocket body
Debris
Shape & HBR
Box + 2 Pan, 29 m
Radar Cross Section
36.964 m², Large (>1 m²)

Expand to show TLE details & history

TLE from 17 hours ago
0 STARLINK-32511
1 61727U 24196W   25186.32266929 -.00001003  00000-0 -21759-4 0  9990
2 61727  53.1587 170.3285 0001081  98.4479 261.6645 15.30188743 39317
Epoch: 2025-07-05T07:44Z
TLE epoch observation values (Epoch: 2025-07-05T07:44:38.626Z)
Latitude
0.00003°
Longitude
130.60521°
Altitude
476.256 km
Speed
7.629 km/s
True Right ascension
11h 21m 18s
True Declination
0° 00' 00"
Sunlit
Object was in daylight at epoch
Visualization orbit readout
Latitude
-23.54154°
Longitude
-33.66409°
Altitude
482.248 km
Speed
7.624 km/s
Apparent Right ascension
00h 20m 49s
Apparent Declination
-31° 16' 11"
Sunlit
Object is in daylight
Visualization observer readout
Local Sidereal Time
12:16:25
Azimuth
353.781° N
Elevation
-81.308°
Doppler factor
1
Orbital elements
Apogee altitude
476.246 km
Perigee altitude
474.764 km
Semi-major axis
6,853.642 km
Eccentricity
0.00011
Inclination
53.1587°
RAAN
170.3285°
Arg. of periapsis
98.4479°
True anomaly
Unknown
Mean anomaly
261.6645°
Eccentric anomaly
Unknown
Mean motion
3.82526 °/min
Orbital period
94.11 mins
BSTAR
-0.000021759
Loading maneuver chart data...
Loading SW <> Apogee altitude chart data...
Loading historical data...
Loading historical data...
Loading historical data...
Loading historical data...
Loading historical data...
Loading historical data...
Loading historical data...

STARLINK-32511 Visibility forecast

Observer location: undefined°, undefined°

Span
Click to sort rows by Start time (UTC) header in descending order
Start Az.
Max El. time (UTC)
Max El. Az.
Max El.
End time (UTC)
End Az.
6 mins2025-07-06 01:08:55.663Z202.125° SSW2025-07-06 01:11:55.663Z131.181° SE33.439°2025-07-06 01:14:55.663Z65.144° ENE
5 mins2025-07-06 02:47:55.663Z284.56° WNW2025-07-06 02:49:55.663Z332.945° NNW24.729°2025-07-06 02:52:55.663Z30.558° NE
5 mins2025-07-06 07:44:55.663Z337.503° N2025-07-06 07:46:55.663Z39.081° NE31.661°2025-07-06 07:49:55.663Z101.261° ESE
4 mins2025-07-06 09:22:55.663Z268.957° W2025-07-06 09:24:55.663Z219.017° SW23.022°2025-07-06 09:26:55.663Z179.317° S
|